TimeCDT,TemperatureF,Dew PointF,Humidity,Sea Level PressureIn,VisibilityMPH,Wind Direction,Wind SpeedMPH,Gust SpeedMPH,PrecipitationIn,Events,Conditions,WindDirDegrees,DateUTC
12:53 AM,75.9,64.9,69,29.98,10.0,South,6.9,-,N/A,,Clear,190,2013-07-19 05:53:00
1:53 AM,73.9,64.9,73,29.97,10.0,South,4.6,-,N/A,,Clear,180,2013-07-19 06:53:00
2:53 AM,72.0,64.9,78,29.96,10.0,South,5.8,-,N/A,,Clear,170,2013-07-19 07:53:00
3:53 AM,71.1,66.0,84,29.94,10.0,SSE,8.1,-,N/A,,Clear,160,2013-07-19 08:53:00
4:53 AM,71.1,66.0,84,29.94,10.0,South,6.9,-,N/A,,Clear,180,2013-07-19 09:53:00
5:53 AM,71.1,66.0,84,29.94,10.0,South,4.6,-,N/A,,Clear,180,2013-07-19 10:53:00
6:53 AM,72.0,66.0,81,29.96,10.0,South,6.9,-,N/A,,Clear,170,2013-07-19 11:53:00
7:53 AM,77.0,66.9,71,29.95,10.0,South,5.8,-,N/A,,Clear,180,2013-07-19 12:53:00
8:53 AM,82.0,66.9,60,29.96,10.0,SSW,11.5,-,N/A,,Clear,200,2013-07-19 13:53:00
9:53 AM,88.0,66.9,49,29.95,10.0,SW,13.8,-,N/A,,Clear,220,2013-07-19 14:53:00
10:53 AM,90.0,66.9,46,29.94,10.0,SW,12.7,-,N/A,,Clear,220,2013-07-19 15:53:00
11:53 AM,93.0,66.9,42,29.94,10.0,SW,11.5,-,N/A,,Partly Cloudy,220,2013-07-19 16:53:00
12:53 PM,93.0,66.0,41,29.92,10.0,SW,10.4,18.4,N/A,,Scattered Clouds,230,2013-07-19 17:53:00
1:53 PM,96.1,66.0,37,29.91,10.0,SW,10.4,-,N/A,,Partly Cloudy,220,2013-07-19 18:53:00
2:53 PM,96.1,64.0,35,29.89,10.0,SW,11.5,21.9,N/A,,Scattered Clouds,230,2013-07-19 19:53:00
3:53 PM,97.0,64.0,34,29.87,10.0,South,6.9,16.1,N/A,,Partly Cloudy,170,2013-07-19 20:53:00
4:53 PM,98.1,64.9,34,29.84,10.0,SSW,10.4,19.6,N/A,,Clear,200,2013-07-19 21:53:00
5:53 PM,96.1,64.9,36,29.83,10.0,South,8.1,-,N/A,,Clear,180,2013-07-19 22:53:00
6:53 PM,93.9,64.9,38,29.82,10.0,South,6.9,-,N/A,,Clear,180,2013-07-19 23:53:00
7:53 PM,89.1,66.9,48,29.84,10.0,South,3.5,-,N/A,,Clear,180,2013-07-20 00:53:00
8:53 PM,87.1,66.9,51,29.87,10.0,North,12.7,17.3,N/A,,Partly Cloudy,360,2013-07-20 01:53:00
9:00 PM,87.8,66.2,49,29.92,10.0,NNE,18.4,26.5,N/A,Thunderstorm,Thunderstorm,20,2013-07-20 02:00:00
9:07 PM,84.2,66.2,55,29.92,10.0,NE,11.5,26.5,N/A,Thunderstorm,Thunderstorm,40,2013-07-20 02:07:00
9:33 PM,80.6,64.4,58,29.96,10.0,North,11.5,19.6,N/A,Thunderstorm,Thunderstorm,10,2013-07-20 02:33:00
9:53 PM,80.6,64.4,58,29.91,10.0,NNW,9.2,-,N/A,Thunderstorm,Thunderstorm,330,2013-07-20 02:53:00
9:54 PM,82.4,64.4,54,29.96,10.0,NNW,9.2,-,N/A,,Partly Cloudy,340,2013-07-20 02:54:00
10:53 PM,80.1,66.0,62,29.89,10.0,West,3.5,-,N/A,,Clear,280,2013-07-20 03:53:00
11:53 PM,77.0,68.0,74,29.90,10.0,NW,5.8,-,N/A,,Clear,320,2013-07-20 04:53:00